Home > Weather > Suzhou > Past weeks

Flag for China Weather for the Past 2 Weeks in Suzhou, Jiangsu, China

Now
50 °F

Passing clouds.


Feels Like: 47 °F
Forecast: 33 / 54 °F
Wind: 8 mph from West

Location: Shanghai Hongqiao Airport

Current Time: Feb 7, 2016 at 3:09:58 PM

Latest Report: Feb 7, 2016 at 2:30 PM


Visibility: N/A

Pressure: 30.18 "Hg

Humidity: 25%

Dew point: 16 °F

Location of SuzhouLocation

Historic Weather in Suzhou — Graph

°F

Suzhou Temperature Yesterday

Maximum temperature yesterday: 45 °F (at 12:00 PM)
Minimum temperature yesterday: 34 °F (at 3:00 AM)
Average temperature yesterday: 39 °F

High & Low Weather Summary for the Past Weeks

 TemperatureHumidityPressure
High50 °F (Feb 5, 1:00 PM)100% (Jan 27, 5:00 PM)30.77 "Hg (Jan 27, 5:00 PM)
Low19 °F (Jan 24, 6:00 AM)23% (Feb 7, 12:30 PM)30.09 "Hg (Jan 28, 2:00 PM)
Average36 °F67%30.43 "Hg
* Reported Jan 23 2:00 PM — Feb 7 2:00 PM, Suzhou, Weather by CustomWeather, © 2016

Note: Actual official high and low records may vary slightly from our data, if they occured in-between our weather recording intervals... More about our weather records

Advertising

Suzhou Weather History for the Previous 24 Hours

 ConditionsComfort  
Time TempWeatherWind HumidityBarometerVisibility
2:00 PM
Sun, Feb 7
50 °FPassing clouds.10 mph28%30.18 "HgN/A
1:30 PM50 °FSunny.15 mph25%30.21 "Hg10 mi
1:00 PM50 °FPassing clouds.13 mph24%30.21 "HgN/A
12:30 PM48 °FPassing clouds.8 mph23%30.24 "HgN/A
12:00 PM48 °FPassing clouds.8 mph27%30.27 "HgN/A
11:30 AM48 °FPassing clouds.10 mph29%30.27 "HgN/A
11:00 AM46 °FSunny.6 mph32%30.30 "Hg10 mi
10:30 AM46 °FPassing clouds.6 mph32%30.33 "HgN/A
10:00 AM43 °FSunny.8 mph39%30.33 "Hg10 mi
9:30 AM41 °FPassing clouds.6 mph42%30.33 "HgN/A
9:00 AM37 °FClear.3 mph56%30.33 "Hg5 mi
8:30 AM36 °FClear.3 mph65%30.36 "Hg5 mi
8:00 AM34 °FClear.3 mph75%30.36 "Hg4 mi
7:30 AM30 °FClear.3 mph80%30.33 "Hg4 mi
7:00 AM30 °FClear.3 mph80%30.33 "Hg4 mi
6:30 AM28 °FClear.3 mph86%30.33 "Hg10 mi
5:00 AM30 °FClear.1 mph75%30.33 "Hg10 mi
4:30 AM30 °FClear.3 mph75%30.33 "Hg10 mi
4:00 AM30 °FClear.3 mph75%30.36 "Hg10 mi
3:30 AM32 °FClear.1 mph75%30.36 "Hg10 mi
3:00 AM32 °FClear.1 mph69%30.36 "Hg10 mi
2:30 AM30 °FClear.3 mph75%30.39 "Hg10 mi
2:00 AM32 °FClear.1 mph64%30.42 "Hg10 mi
1:30 AM32 °FClear.1 mph69%30.42 "Hg10 mi
1:00 AM30 °FClear.3 mph75%30.42 "Hg10 mi
12:30 AM32 °FClear.3 mph69%30.42 "Hg10 mi
12:00 AM34 °FClear.1 mph60%30.42 "Hg10 mi
11:30 PM
Sat, Feb 6
36 °FClear.1 mph52%30.42 "Hg10 mi
11:00 PM36 °FClear.3 mph48%30.42 "Hg10 mi
10:30 PM36 °FClear.3 mph48%30.42 "Hg10 mi
10:00 PM36 °FPassing clouds.6 mph48%30.45 "HgN/A
9:30 PM36 °FClear.6 mph48%30.45 "Hg10 mi
9:00 PM37 °FClear.8 mph45%30.45 "Hg10 mi
8:30 PM37 °FClear.8 mph45%30.45 "Hg10 mi
8:00 PM37 °FClear.10 mph45%30.45 "Hg10 mi
7:30 PM39 °FClear.10 mph39%30.45 "Hg10 mi
7:00 PM39 °FClear.10 mph36%30.45 "Hg10 mi
6:30 PM39 °FPassing clouds.10 mph36%30.42 "HgN/A
6:00 PM41 °FClear.13 mph33%30.42 "Hg10 mi
5:30 PM41 °FSunny.15 mph36%30.39 "Hg10 mi
5:00 PM43 °FSunny.15 mph31%30.39 "Hg10 mi
4:30 PM43 °FSunny.17 mph31%30.39 "Hg10 mi
4:00 PM43 °FPassing clouds.17 mph31%30.39 "HgN/A
3:30 PM45 °FPassing clouds.17 mph29%30.39 "HgN/A
3:00 PM45 °FPassing clouds.20 mph29%30.39 "HgN/A
Weather by CustomWeather, © 2016

See weather overviewHow to use our weather pages